Location: Bailleul
(50.3375°N, 2.8513°E)
Time: 16:35:23
(UTC+00:00)

Cosmos 1745 Rocket - Pass Details

Date: 19 April 2021
Orbit: 953 x 998 km, 83.0° (Epoch: 06 May)

Event Time Altitude Azimuth Distance (km) Brightness Sun altitude
Rises 22:11:48 0° 350° (N) 3,721 8.3 -24.7°
Reaches altitude 10° 22:14:22 10° 352° (N) 2,764 7.3 -24.9°
Maximum altitude 22:20:43 78° 79° (E) 1,008 3.9 -25.3°
Enters shadow 22:21:55 60° 149° (SSE) 1,117 3.9 -25.4°
